Theta_e
291 291 291 291 293 295 297 298 297 297 298 298 298 299 298 297 297 296 296 297 298 298 298 298 298 297 296 295 295 295 296 296 295 295 295 296 294 293 292 291 291 291 292
288 288 289 289 290 290 290 292 294 296 296 296 297 298 298 297 296 296 296 295 295 296 297 297 297 296 295 295 294 295 295 295 294 295 295 296 295 293 291 290 291 291 292
287 287 287 287 287 287 288 288 288 289 293 294 295 296 297 298 296 295 295 295 295 294 294 295 296 297 296 295 295 294 294 294 294 293 294 294 294 293 291 290 290 290 290
287 287 286 286 286 286 286 286 286 287 287 288 289 292 294 298 298 298 294 295 295 293 294 295 294 294 297 296 295 294 294 294 294 293 292 293 292 292 291 290 289 289 289
286 286 286 286 286 286 286 286 286 286 286 286 286 287 287 290 295 298 298 297 295 294 294 295 295 295 293 294 296 295 293 293 293 293 292 292 291 291 292 291 289 289 288
286 286 286 286 285 285 285 286 286 286 286 286 286 286 286 286 286 286 292 297 297 295 293 293 294 294 295 292 292 294 295 293 293 293 292 292 293 293 292 292 289 288 287
286 286 285 285 285 286 286 286 286 286 286 285 285 285 286 286 286 285 285 287 294 296 294 293 292 293 293 294 293 290 290 293 293 293 293 293 292 293 293 291 289 289 289
284 283 284 283 284 284 284 285 285 285 285 285 285 285 285 285 285 285 285 285 285 291 295 292 290 290 291 291 290 290 289 290 290 291 291 292 292 293 293 292 291 288 287
281 281 281 281 281 281 281 282 283 283 284 284 285 285 285 285 285 285 285 285 285 285 289 294 292 289 289 287 287 288 290 289 289 289 289 290 291 290 290 289 287 286 286
280 279 279 278 278 278 278 278 278 278 279 280 282 283 284 284 284 284 284 284 284 285 285 288 294 292 288 287 286 287 287 289 287 287 286 287 287 288 289 289 287 286 286
277 277 276 275 275 275 275 275 275 275 274 275 277 280 281 283 283 283 283 283 284 284 284 285 288 292 289 287 286 286 287 286 287 287 286 286 285 287 287 287 286 285 286
277 277 275 273 271 270 270 270 270 271 271 272 272 274 277 281 282 281 282 282 283 283 284 284 285 290 288 287 286 285 285 285 285 285 285 284 285 286 285 285 284 284 284
276 275 273 270 269 267 267 267 267 268 269 270 270 271 272 274 276 278 281 282 283 284 283 284 285 287 287 287 286 285 284 285 284 284 283 283 284 285 283 282 282 282 282
271 270 267 266 266 265 265 265 265 265 266 267 268 269 270 271 273 275 278 281 282 282 282 284 285 286 287 286 285 285 284 284 284 283 282 282 282 281 281 282 282 282 283
268 266 265 265 264 264 264 264 264 265 265 266 266 267 268 269 270 273 277 280 281 281 281 282 284 285 286 285 284 285 284 284 283 282 282 281 280 281 281 281 281 282 281
265 264 264 264 264 264 264 264 265 266 267 267 268 269 269 270 271 273 274 275 277 280 282 281 283 285 285 285 283 284 284 284 283 282 281 280 279 279 279 280 281 281 280
264 264 264 264 264 263 263 264 264 265 266 267 267 268 269 270 271 272 274 275 277 279 282 282 282 283 283 283 283 283 283 283 282 281 281 279 278 279 280 281 281 280 278
265 265 264 263 263 264 264 264 265 265 265 266 266 266 267 269 270 272 274 276 278 279 282 282 282 282 282 282 282 283 282 282 280 280 280 279 279 280 279 279 279 279 278
266 266 265 264 265 265 265 265 266 266 266 266 267 267 268 268 270 272 275 278 280 282 283 282 282 282 282 282 282 282 282 281 280 279 279 278 278 277 277 277 276 275 275
268 267 266 265 265 266 266 266 267 268 268 268 268 270 271 271 273 275 276 277 278 280 283 283 282 282 281 281 282 282 282 280 278 278 278 278 277 277 277 276 274 276 274
268 266 267 267 267 267 267 267 269 271 271 271 271 272 271 273 275 275 276 278 281 282 283 282 282 281 281 281 281 281 280 278 277 277 278 277 277 277 276 275 275 274 275
267 267 267 267 267 267 268 268 268 269 270 271 271 272 273 274 275 275 277 279 282 282 282 281 281 281 280 280 281 280 279 278 277 277 277 277 276 275 274 274 274 274 273
269 268 268 268 268 268 268 269 269 269 270 270 271 272 273 273 274 275 277 279 280 280 280 280 280 280 279 280 279 279 278 277 277 277 277 276 275 274 274 274 273 273 272
270 269 268 268 269 269 268 268 269 270 269 270 270 270 271 272 273 274 275 276 277 277 277 277 277 277 278 277 276 276 276 276 276 276 276 276 275 274 273 273 272 271 270
270 270 269 269 269 269 269 269 268 269 269 269 269 270 271 272 273 273 273 274 274 275 275 275 275 275 275 275 275 274 274 274 274 274 274 274 274 273 272 271 270 270 269
270 270 269 269 269 269 269 269 269 269 269 269 270 270 270 271 271 272 272 273 273 274 274 274 274 274 274 273 273 273 273 273 273 273 273 273 272 271 270 270 269 269 269
Wind_Speed
21 21 21 20 20 20 21 22 21 22 23 20 18 16 18 22 25 28 31 35 42 49 52 54 55 55 57 54 50 47 44 40 36 32 31 30 31 33 34 33 28 24 21
25 25 24 22 21 22 23 24 25 24 22 21 21 22 20 20 21 27 31 32 36 42 48 52 54 55 58 57 54 52 48 44 41 39 35 33 33 33 34 35 31 28 24
29 27 27 28 27 26 25 24 25 26 26 27 25 22 20 23 23 24 28 30 35 38 41 47 53 54 59 58 57 56 53 49 46 45 41 37 35 35 36 38 36 32 29
28 29 31 32 32 31 30 30 29 28 28 26 27 30 29 25 24 25 27 29 33 38 40 43 47 53 58 58 60 59 57 54 51 50 45 42 39 38 38 40 39 37 32
25 27 28 32 35 37 39 39 37 34 33 31 30 28 28 30 32 30 27 26 30 35 39 43 46 49 52 57 60 61 61 59 59 55 52 47 44 42 44 43 40 37 35
27 29 29 32 34 38 42 43 42 42 41 39 36 35 33 32 31 29 31 33 30 32 39 42 45 47 49 52 59 60 62 62 64 62 60 58 54 48 44 42 40 40 36
36 36 36 35 37 38 40 43 46 48 49 47 46 43 41 39 36 34 32 31 35 37 37 40 44 48 48 50 54 59 62 64 64 64 66 66 60 54 48 44 43 40 41
40 39 40 42 44 44 44 44 45 46 49 52 53 52 51 48 43 39 36 36 37 38 41 41 43 46 48 49 51 53 59 63 64 65 66 63 63 56 51 47 44 42 39
36 39 42 44 48 52 55 56 55 55 54 53 54 57 58 57 53 49 44 42 43 43 41 42 42 46 48 47 49 50 53 61 63 63 64 63 61 56 48 45 46 43 41
39 41 45 48 50 49 49 53 57 58 62 61 62 61 61 63 59 57 52 48 47 47 46 44 43 44 47 44 50 50 54 56 58 57 58 58 61 59 53 50 47 48 45
50 49 49 47 43 46 49 47 45 48 51 60 63 66 64 63 64 61 57 51 51 48 48 48 47 44 43 47 48 53 55 48 50 51 54 57 57 55 55 54 50 47 44
57 58 58 57 54 50 47 50 46 46 48 52 52 57 62 63 62 60 55 52 51 47 49 47 45 42 41 42 47 53 46 43 46 48 51 55 60 59 57 53 51 46 42
55 57 58 58 55 50 45 43 42 41 42 45 44 46 52 49 48 46 39 39 39 40 46 46 43 38 40 40 40 47 46 45 49 51 53 52 54 58 55 52 47 44 40
53 54 52 49 47 43 40 38 38 37 38 40 42 44 44 43 42 39 36 33 35 40 42 38 39 38 40 43 40 39 47 52 53 51 48 44 44 48 55 54 50 44 37
49 49 47 44 41 41 40 39 38 39 39 42 43 44 46 48 43 35 31 28 29 33 30 29 34 35 42 43 40 38 49 49 50 47 41 42 48 54 54 52 48 42 39
44 43 42 43 44 42 41 42 37 36 37 38 41 44 49 51 48 44 43 43 40 34 32 32 33 36 42 46 46 43 45 48 49 46 43 46 48 48 50 48 43 41 37
39 41 42 42 43 42 42 41 43 45 38 37 37 38 40 43 42 42 41 40 38 37 40 38 36 37 42 41 40 42 43 47 49 49 48 48 47 46 46 45 45 41 38
38 39 39 39 39 40 41 42 42 43 44 48 40 33 33 34 34 34 34 33 38 37 40 38 34 36 39 38 39 41 41 45 45 49 48 47 46 46 48 47 45 42 39
37 39 37 37 38 40 42 41 41 41 41 42 43 37 32 26 26 26 29 33 25 29 35 38 33 33 37 36 35 40 41 45 48 49 47 44 45 47 45 43 42 40 37
37 35 34 36 37 37 37 38 39 39 39 39 37 33 28 24 24 20 19 20 29 33 28 29 25 30 31 34 35 38 42 43 44 44 43 43 45 44 43 41 38 34 29
35 34 31 31 32 33 35 35 35 35 34 32 31 29 25 28 27 23 20 19 15 24 26 19 22 29 31 32 32 37 40 43 43 43 43 42 42 42 39 36 32 26 24
31 30 29 29 29 30 29 28 26 25 24 27 28 25 20 17 14 13 13 5 6 13 14 11 19 25 30 31 31 36 37 40 41 43 41 39 37 36 33 30 28 25 22
27 28 26 26 26 26 27 26 25 24 24 22 21 20 17 15 10 6 2 1 2 3 5 10 19 25 28 29 30 31 33 34 37 39 36 34 33 31 29 27 25 21 18
26 25 24 24 24 25 25 26 26 24 22 21 21 19 17 14 12 9 6 3 2 4 7 11 16 20 21 19 19 19 20 22 28 30 30 30 29 28 25 23 20 18 17
26 25 23 22 23 24 25 26 27 25 23 22 21 19 17 16 13 12 10 8 7 6 6 6 7 9 9 9 11 13 16 19 25 27 26 25 24 23 21 18 18 17 13
22 23 23 22 22 22 24 25 27 27 27 25 23 22 21 20 20 18 16 15 13 13 12 13 12 13 15 17 18 20 22 23 23 22 22 21 20 18 18 17 15 12 10
Wind_Direction
13 12 9 7 2 354 348 346 347 347 350 340 319 303 290 284 277 271 267 262 257 254 252 249 248 246 245 242 238 238 239 237 237 230 232 234 230 228 225 221 226 228 231
0 360 358 354 353 353 350 345 339 336 338 340 341 333 317 301 286 277 276 271 264 259 255 253 250 247 246 244 241 238 237 236 236 237 233 228 228 228 225 222 226 227 230
344 350 347 344 343 342 341 339 337 332 328 326 325 327 328 324 309 294 283 275 273 268 262 258 255 251 250 247 244 240 238 237 236 240 238 233 227 223 222 221 226 228 229
333 337 336 333 333 333 333 331 327 325 325 323 321 318 314 307 309 308 294 285 277 270 266 262 260 255 253 251 248 245 240 236 236 236 236 237 231 225 223 224 227 230 231
325 324 324 319 318 319 319 321 321 320 318 317 316 315 315 312 305 295 291 295 286 277 270 265 261 260 257 255 251 247 243 237 235 234 234 231 230 227 226 227 229 232 234
318 316 311 306 304 305 307 310 311 313 313 312 311 311 310 309 311 311 302 292 281 279 275 269 263 261 258 257 256 253 249 243 237 235 234 236 234 234 233 231 226 224 230
315 314 311 307 302 299 298 299 301 303 305 306 305 306 305 304 305 306 308 298 289 281 275 271 267 263 260 257 256 254 251 249 245 244 240 239 237 236 236 232 229 229 232
316 315 314 312 309 305 301 298 295 294 294 296 298 299 298 297 299 299 299 299 292 284 279 272 268 265 261 257 253 250 249 248 245 243 242 244 245 243 239 241 238 228 225
310 310 309 306 304 303 301 299 296 294 290 288 288 290 292 292 294 294 296 294 291 288 281 278 270 266 261 252 251 248 249 248 246 242 242 242 243 244 239 234 228 222 220
308 304 302 302 300 296 293 293 294 292 291 288 284 282 282 285 286 287 289 289 286 286 286 280 276 268 260 245 245 246 242 244 240 235 234 234 237 237 235 235 234 226 222
307 303 300 298 292 289 289 288 285 284 285 287 287 284 281 278 279 281 281 280 281 281 281 280 276 276 265 246 238 243 245 239 241 241 240 236 233 231 229 228 228 226 224
307 304 303 301 299 295 291 289 286 283 282 282 284 286 284 280 276 277 277 274 275 273 273 275 273 272 262 250 235 238 234 226 230 231 232 225 230 227 224 224 223 221 221
307 305 304 304 304 304 299 294 289 285 281 279 279 279 281 282 280 277 270 265 264 262 267 269 266 260 256 246 238 233 228 220 220 217 220 220 226 228 221 219 217 217 217
310 309 310 310 311 309 303 296 291 288 284 280 278 278 278 279 277 274 273 269 262 263 266 261 254 254 248 246 239 237 226 220 218 215 215 215 215 209 215 216 213 212 212
313 311 310 309 306 303 299 294 291 288 285 283 280 278 277 277 274 273 269 267 268 276 272 264 257 251 236 230 229 234 222 221 216 213 208 203 201 208 214 213 210 209 213
310 311 310 310 310 305 301 298 297 292 289 285 282 278 277 275 276 273 271 268 267 267 267 265 255 240 228 228 223 224 223 221 213 209 203 199 196 200 206 204 206 209 207
319 317 315 313 309 305 302 298 297 303 298 292 287 284 279 278 276 272 269 266 262 254 254 252 253 241 231 225 218 218 218 217 210 208 205 202 202 209 212 202 206 204 202
323 320 315 311 305 301 299 298 297 295 297 301 305 295 289 283 278 271 269 271 256 246 243 244 248 235 226 221 214 216 209 210 205 205 207 209 214 216 206 205 203 202 202
326 326 322 314 312 309 306 302 299 297 296 297 304 310 311 296 287 276 269 271 270 237 230 239 248 237 224 221 214 210 210 211 210 210 212 214 213 210 205 201 198 198 198
330 325 329 321 316 317 316 310 306 302 301 305 310 320 327 327 325 311 288 275 256 242 244 233 255 233 219 209 216 216 213 208 203 207 211 212 208 206 201 198 195 198 195
329 332 330 329 328 327 322 317 316 316 310 319 325 333 317 309 308 301 297 292 284 239 224 247 232 214 210 214 223 217 213 208 207 209 210 207 200 201 199 197 194 193 197
332 335 336 334 336 334 334 335 335 334 332 327 326 327 321 315 315 312 310 299 214 212 238 251 231 222 219 219 222 216 213 213 211 207 202 198 196 194 189 186 188 190 192
344 343 343 345 345 347 351 353 353 351 351 350 348 345 343 340 335 329 320 109 192 223 233 219 217 214 211 214 216 219 217 214 212 206 197 191 188 185 186 187 187 189 193
355 353 353 355 357 359 2 3 2 2 4 5 5 9 16 23 28 30 29 52 132 178 197 204 205 201 203 205 208 210 212 214 208 198 193 186 181 181 183 183 184 189 196
5 3 2 3 6 8 10 14 16 17 19 22 25 27 30 35 38 44 51 59 74 90 108 130 159 173 180 187 191 185 178 178 178 174 176 176 175 176 178 183 190 195 202
12 13 13 13 14 18 22 27 31 34 36 39 40 42 47 52 56 60 66 76 86 95 104 111 117 125 130 132 133 138 144 152 158 163 166 168 169 171 179 187 194 201 213